Location: B?ogocice
(50.2413°N, 20.2361°E)
Time: 04:28:56
(UTC+00:00)

ALOS - Pass Details

Date: 26 September 2024
Orbit: 670 x 673 km, 98.0° (Epoch: 04 October)

Event Time Altitude Azimuth Distance (km) Brightness Sun altitude
Rises 01:01:48 0° 18° (NNE) 3,030 6.5 -31.5°
Reaches altitude 10° 01:04:08 10° 25° (NNE) 2,111 5.5 -31.3°
Enters shadow 01:07:39 40° 65° (ENE) 988 3.4 -30.9°
